Time,TemperatureF,DewpointF,PressureIn,WindDirection,WindDirectionDegrees,WindSpeedMPH,WindSpeedGustMPH,Humidity,HourlyPrecipIn,Conditions,Clouds,dailyrainin,SoftwareType,DateUTC
2013-10-04 00:31:00,71.0,67.0,29.99,South,180,1.0,4.0,87,0.00,,,0.00,weatherlink.com 1.10,2013-10-04 04:31:00,
2013-10-04 00:46:00,70.8,67.0,29.99,SSW,198,0.0,4.0,87,0.00,,,0.00,weatherlink.com 1.10,2013-10-04 04:46:00,
2013-10-04 01:01:00,70.7,67.0,29.98,South,172,0.0,3.0,87,0.00,,,0.00,weatherlink.com 1.10,2013-10-04 05:01:00,
2013-10-04 01:16:00,70.4,67.0,29.98,South,190,3.0,5.0,88,0.00,,,0.00,weatherlink.com 1.10,2013-10-04 05:16:00,
2013-10-04 01:31:00,70.2,67.0,29.97,South,182,2.0,4.0,88,0.00,,,0.00,weatherlink.com 1.10,2013-10-04 05:31:00,
2013-10-04 01:46:00,69.9,67.0,29.98,South,182,3.0,5.0,89,0.00,,,0.00,weatherlink.com 1.10,2013-10-04 05:46:00,
2013-10-04 02:01:00,69.6,66.0,29.98,SSW,196,1.0,5.0,89,0.00,,,0.00,weatherlink.com 1.10,2013-10-04 06:01:00,
2013-10-04 02:16:00,69.3,66.0,29.99,South,189,0.0,3.0,90,0.00,,,0.00,weatherlink.com 1.10,2013-10-04 06:16:00,
2013-10-04 02:31:00,69.0,66.0,29.99,SSW,192,2.0,3.0,91,0.00,,,0.00,weatherlink.com 1.10,2013-10-04 06:31:00,
2013-10-04 02:46:00,68.6,66.0,29.99,SSW,192,0.0,2.0,91,0.00,,,0.00,weatherlink.com 1.10,2013-10-04 06:46:00,
2013-10-04 03:01:00,68.1,66.0,29.99,SSW,192,0.0,0.0,92,0.00,,,0.00,weatherlink.com 1.10,2013-10-04 07:01:00,
2013-10-04 03:16:00,67.4,65.0,29.99,SSW,192,0.0,0.0,92,0.00,,,0.00,weatherlink.com 1.10,2013-10-04 07:16:00,
2013-10-04 03:31:00,66.7,64.0,29.99,SSW,192,0.0,0.0,92,0.00,,,0.00,weatherlink.com 1.10,2013-10-04 07:31:00,
2013-10-04 03:46:00,66.3,64.0,29.99,SSW,192,0.0,0.0,93,0.00,,,0.00,weatherlink.com 1.10,2013-10-04 07:46:00,
2013-10-04 04:01:00,65.9,64.0,29.99,SSW,192,0.0,0.0,94,0.00,,,0.00,weatherlink.com 1.10,2013-10-04 08:01:00,
2013-10-04 04:16:00,65.6,64.0,29.99,SSW,192,0.0,0.0,94,0.00,,,0.00,weatherlink.com 1.10,2013-10-04 08:16:00,
2013-10-04 04:31:00,65.3,64.0,29.99,SSW,192,0.0,0.0,94,0.00,,,0.00,weatherlink.com 1.10,2013-10-04 08:31:00,
2013-10-04 04:46:00,65.1,64.0,29.99,SSW,192,0.0,0.0,95,0.00,,,0.00,weatherlink.com 1.10,2013-10-04 08:46:00,
2013-10-04 05:01:00,65.0,64.0,29.99,SSW,192,0.0,0.0,95,0.00,,,0.00,weatherlink.com 1.10,2013-10-04 09:01:00,
2013-10-04 05:16:00,64.8,63.0,29.99,SSW,192,0.0,0.0,95,0.00,,,0.00,weatherlink.com 1.10,2013-10-04 09:16:00,
2013-10-04 05:31:00,64.7,64.0,29.99,SSW,192,0.0,0.0,96,0.00,,,0.00,weatherlink.com 1.10,2013-10-04 09:31:00,
2013-10-04 05:46:00,64.9,64.0,29.99,SSW,192,0.0,1.0,96,0.00,,,0.00,weatherlink.com 1.10,2013-10-04 09:46:00,
2013-10-04 06:01:00,64.9,64.0,29.99,SSW,192,0.0,0.0,96,0.00,,,0.00,weatherlink.com 1.10,2013-10-04 10:01:00,
2013-10-04 06:16:00,64.9,64.0,30.00,SSW,192,0.0,0.0,96,0.00,,,0.00,weatherlink.com 1.10,2013-10-04 10:16:00,
2013-10-04 06:31:00,64.6,64.0,30.00,SSW,192,0.0,1.0,96,0.00,,,0.00,weatherlink.com 1.10,2013-10-04 10:31:00,
2013-10-04 06:46:00,64.5,63.0,30.01,SSW,192,0.0,0.0,96,0.00,,,0.00,weatherlink.com 1.10,2013-10-04 10:46:00,
2013-10-04 07:01:00,64.3,63.0,30.01,SSW,192,0.0,0.0,96,0.00,,,0.00,weatherlink.com 1.10,2013-10-04 11:01:00,
2013-10-04 07:16:00,64.1,63.0,30.02,SSW,192,0.0,0.0,96,0.00,,,0.00,weatherlink.com 1.10,2013-10-04 11:16:00,
2013-10-04 07:31:00,64.0,63.0,30.02,SSW,192,0.0,0.0,97,0.00,,,0.00,weatherlink.com 1.10,2013-10-04 11:31:00,
2013-10-04 07:46:00,64.1,63.0,30.03,SSW,192,0.0,0.0,97,0.00,,,0.00,weatherlink.com 1.10,2013-10-04 11:46:00,
2013-10-04 08:01:00,64.1,63.0,30.03,SSW,192,0.0,0.0,97,0.00,,,0.00,weatherlink.com 1.10,2013-10-04 12:01:00,
2013-10-04 08:16:00,64.2,63.0,30.04,SSW,192,0.0,0.0,97,0.00,,,0.00,weatherlink.com 1.10,2013-10-04 12:16:00,
2013-10-04 08:31:00,64.5,64.0,30.04,SSW,192,0.0,0.0,97,0.00,,,0.00,weatherlink.com 1.10,2013-10-04 12:31:00,
2013-10-04 08:46:00,65.1,65.0,30.04,SSW,192,0.0,1.0,98,0.00,,,0.00,weatherlink.com 1.10,2013-10-04 12:46:00,
2013-10-04 09:01:00,66.7,66.0,30.04,SSW,192,1.0,3.0,98,0.00,,,0.00,weatherlink.com 1.10,2013-10-04 13:01:00,
2013-10-04 09:17:00,67.1,66.0,30.04,SSW,192,0.0,0.0,96,0.00,,,0.00,weatherlink.com 1.10,2013-10-04 13:17:00,
2013-10-04 09:32:00,67.7,66.0,30.04,South,184,1.0,4.0,95,0.00,,,0.00,weatherlink.com 1.10,2013-10-04 13:32:00,
2013-10-04 09:47:00,69.3,67.0,30.04,SSW,211,4.0,7.0,93,0.00,,,0.00,weatherlink.com 1.10,2013-10-04 13:47:00,
2013-10-04 10:02:00,70.7,68.0,30.04,SW,234,3.0,7.0,91,0.00,,,0.00,weatherlink.com 1.10,2013-10-04 14:02:00,
2013-10-04 10:17:00,71.9,69.0,30.04,SW,231,2.0,8.0,90,0.00,,,0.00,weatherlink.com 1.10,2013-10-04 14:17:00,
2013-10-04 10:32:00,72.8,69.0,30.04,SW,236,4.0,8.0,87,0.00,,,0.00,weatherlink.com 1.10,2013-10-04 14:32:00,
2013-10-04 10:47:00,73.6,69.0,30.04,South,170,3.0,5.0,86,0.00,,,0.00,weatherlink.com 1.10,2013-10-04 14:47:00,
2013-10-04 11:02:00,74.6,70.0,30.04,SSE,150,0.0,7.0,85,0.00,,,0.00,weatherlink.com 1.10,2013-10-04 15:02:00,
2013-10-04 11:17:00,75.6,70.0,30.03,SSW,211,2.0,5.0,82,0.00,,,0.00,weatherlink.com 1.10,2013-10-04 15:17:00,
2013-10-04 11:32:00,75.8,70.0,30.04,SSE,168,7.0,7.0,83,0.00,,,0.00,weatherlink.com 1.10,2013-10-04 15:32:00,
2013-10-04 11:47:00,76.2,70.0,30.04,WSW,251,4.0,5.0,81,0.00,,,0.00,weatherlink.com 1.10,2013-10-04 15:47:00,
2013-10-04 12:02:00,76.4,70.0,30.04,SSE,159,2.0,7.0,81,0.00,,,0.00,weatherlink.com 1.10,2013-10-04 16:02:00,
2013-10-04 12:17:00,76.7,71.0,30.04,South,173,2.0,6.0,81,0.00,,,0.00,weatherlink.com 1.10,2013-10-04 16:17:00,
2013-10-04 12:32:00,77.3,71.0,30.04,WSW,243,0.0,6.0,81,0.00,,,0.00,weatherlink.com 1.10,2013-10-04 16:32:00,
2013-10-04 12:47:00,78.4,72.0,30.04,South,175,4.0,6.0,80,0.00,,,0.00,weatherlink.com 1.10,2013-10-04 16:47:00,
2013-10-04 13:02:00,78.5,72.0,30.03,South,189,1.0,5.0,79,0.00,,,0.00,weatherlink.com 1.10,2013-10-04 17:02:00,
2013-10-04 13:17:00,79.1,72.0,30.03,SSW,192,1.0,6.0,78,0.00,,,0.00,weatherlink.com 1.10,2013-10-04 17:17:00,
2013-10-04 13:32:00,80.0,72.0,30.02,SSW,199,1.0,5.0,77,0.00,,,0.00,weatherlink.com 1.10,2013-10-04 17:32:00,
2013-10-04 14:02:00,82.3,74.0,30.01,South,191,0.0,4.0,76,0.00,,,0.00,weatherlink.com 1.10,2013-10-04 18:02:00,
2013-10-04 14:17:00,81.3,72.0,30.01,WSW,252,4.0,6.0,73,0.00,,,0.00,weatherlink.com 1.10,2013-10-04 18:17:00,
2013-10-04 14:32:00,82.3,72.0,30.00,South,185,2.0,7.0,72,0.00,,,0.00,weatherlink.com 1.10,2013-10-04 18:32:00,
2013-10-04 14:47:00,81.4,72.0,29.99,SSW,202,1.0,3.0,73,0.00,,,0.00,weatherlink.com 1.10,2013-10-04 18:47:00,
2013-10-04 15:02:00,82.9,73.0,29.99,SSE,168,5.0,5.0,73,0.00,,,0.00,weatherlink.com 1.10,2013-10-04 19:02:00,
2013-10-04 15:17:00,82.6,72.0,29.99,South,184,0.0,7.0,71,0.00,,,0.00,weatherlink.com 1.10,2013-10-04 19:17:00,
2013-10-04 15:32:00,82.8,71.0,29.99,SSW,200,0.0,8.0,68,0.00,,,0.00,weatherlink.com 1.10,2013-10-04 19:32:00,
2013-10-04 15:47:00,82.3,72.0,29.99,SSW,210,3.0,4.0,72,0.00,,,0.00,weatherlink.com 1.10,2013-10-04 19:47:00,
2013-10-04 16:02:00,82.5,72.0,29.98,SSE,155,1.0,7.0,70,0.00,,,0.00,weatherlink.com 1.10,2013-10-04 20:02:00,
2013-10-04 16:17:00,80.8,71.0,29.98,SSW,200,1.0,7.0,72,0.00,,,0.00,weatherlink.com 1.10,2013-10-04 20:17:00,
2013-10-04 16:32:00,80.5,72.0,29.98,SSW,193,1.0,6.0,75,0.00,,,0.00,weatherlink.com 1.10,2013-10-04 20:32:00,
2013-10-04 16:47:00,80.0,71.0,29.98,SSE,163,4.0,6.0,74,0.00,,,0.00,weatherlink.com 1.10,2013-10-04 20:47:00,
2013-10-04 17:02:00,79.8,72.0,29.97,South,190,1.0,6.0,76,0.00,,,0.00,weatherlink.com 1.10,2013-10-04 21:02:00,
2013-10-04 17:17:00,80.2,73.0,29.97,South,182,2.0,6.0,78,0.00,,,0.00,weatherlink.com 1.10,2013-10-04 21:17:00,
2013-10-04 17:32:00,81.9,72.0,29.98,South,178,6.0,9.0,73,0.00,,,0.00,weatherlink.com 1.10,2013-10-04 21:32:00,
2013-10-04 17:47:00,82.3,72.0,29.97,SSW,202,6.0,10.0,70,0.00,,,0.00,weatherlink.com 1.10,2013-10-04 21:47:00,
2013-10-04 18:02:00,82.7,72.0,29.97,South,184,1.0,3.0,71,0.00,,,0.00,weatherlink.com 1.10,2013-10-04 22:02:00,
2013-10-04 18:17:00,82.3,73.0,29.97,South,190,1.0,5.0,73,0.00,,,0.00,weatherlink.com 1.10,2013-10-04 22:17:00,
2013-10-04 18:32:00,81.3,71.0,29.97,South,186,3.0,6.0,72,0.00,,,0.00,weatherlink.com 1.10,2013-10-04 22:32:00,
2013-10-04 18:47:00,80.1,71.0,29.97,South,180,1.0,5.0,74,0.00,,,0.00,weatherlink.com 1.10,2013-10-04 22:47:00,
2013-10-04 19:02:00,79.0,71.0,29.98,South,174,1.0,3.0,76,0.00,,,0.00,weatherlink.com 1.10,2013-10-04 23:02:00,
2013-10-04 19:17:00,77.8,70.0,29.98,SSW,210,2.0,6.0,78,0.00,,,0.00,weatherlink.com 1.10,2013-10-04 23:17:00,
2013-10-04 19:33:00,76.7,71.0,29.98,South,174,1.0,5.0,81,0.00,,,0.00,weatherlink.com 1.10,2013-10-04 23:33:00,
2013-10-04 19:47:00,75.9,70.0,29.98,South,174,0.0,2.0,83,0.00,,,0.00,weatherlink.com 1.10,2013-10-04 23:47:00,
2013-10-04 20:02:00,75.1,70.0,29.99,South,174,0.0,2.0,85,0.00,,,0.00,weatherlink.com 1.10,2013-10-05 00:02:00,
2013-10-04 20:17:00,74.6,70.0,29.98,South,174,0.0,0.0,85,0.00,,,0.00,weatherlink.com 1.10,2013-10-05 00:17:00,
2013-10-04 20:32:00,74.0,69.0,29.99,South,185,0.0,4.0,85,0.00,,,0.00,weatherlink.com 1.10,2013-10-05 00:32:00,
2013-10-04 20:47:00,73.7,69.0,29.99,South,180,2.0,3.0,85,0.00,,,0.00,weatherlink.com 1.10,2013-10-05 00:47:00,
2013-10-04 21:03:00,73.5,68.0,30.00,SSW,194,0.0,2.0,84,0.00,,,0.00,weatherlink.com 1.10,2013-10-05 01:03:00,
2013-10-04 21:18:00,73.2,69.0,30.00,SSW,194,0.0,3.0,85,0.00,,,0.00,weatherlink.com 1.10,2013-10-05 01:18:00,
2013-10-04 21:33:00,73.2,69.0,30.00,South,186,2.0,6.0,85,0.00,,,0.00,weatherlink.com 1.10,2013-10-05 01:33:00,
2013-10-04 21:48:00,73.1,68.0,30.00,South,175,1.0,4.0,85,0.00,,,0.00,weatherlink.com 1.10,2013-10-05 01:48:00,
2013-10-04 22:03:00,72.8,68.0,30.01,South,175,0.0,3.0,86,0.00,,,0.00,weatherlink.com 1.10,2013-10-05 02:03:00,
2013-10-04 22:18:00,72.5,69.0,30.01,South,175,0.0,2.0,87,0.00,,,0.00,weatherlink.com 1.10,2013-10-05 02:18:00,
2013-10-04 22:33:00,72.1,68.0,30.01,South,175,0.0,2.0,88,0.00,,,0.00,weatherlink.com 1.10,2013-10-05 02:33:00,
2013-10-04 22:48:00,72.0,69.0,30.01,South,175,0.0,4.0,89,0.00,,,0.00,weatherlink.com 1.10,2013-10-05 02:48:00,
2013-10-04 23:03:00,71.9,69.0,30.01,South,175,1.0,3.0,89,0.00,,,0.00,weatherlink.com 1.10,2013-10-05 03:03:00,
2013-10-04 23:18:00,72.2,69.0,30.01,South,185,2.0,5.0,89,0.00,,,0.00,weatherlink.com 1.10,2013-10-05 03:18:00,
2013-10-04 23:33:00,72.3,69.0,30.01,SSW,200,4.0,4.0,88,0.00,,,0.00,weatherlink.com 1.10,2013-10-05 03:33:00,
2013-10-04 23:48:00,72.6,69.0,30.01,South,178,2.0,6.0,88,0.00,,,0.00,weatherlink.com 1.10,2013-10-05 03:48:00,